Location: Unspecified
(0.0000°N, 0.0000°E)
Time: 08:38:49
(UTC+00:00)

CUBESAT XI-V - Pass Details

Date: 16 December 2017
Orbit: 669 x 694 km, 97.9° (Epoch: 20 June)

Event Time Altitude Azimuth Distance (km) Brightness Sun altitude
Rises 04:17:04 0° 183° (S) 3,019 ? -22.5°
Reaches altitude 10° 04:19:26 10° 191° (S) 2,106 ? -22.0°
Enters shadow 04:23:10 36° 243° (WSW) 1,069 ? -21.1°
